Location: Black Swamp Observatory
(41.3920°N, 84.1250°W)
Time: 13:39:41
(UTC-04:00)

Vanguard 2 - Pass Details

Date: 28 January 2022
Orbit: 552 x 2935 km, 32.9° (Epoch: 24 May)

Event Time Altitude Azimuth Distance (km) Brightness Sun altitude
Rises 18:53:44 0° 215° (SW) 3,384 11.6 -12.6°
Reaches altitude 10° 18:56:15 10° 202° (SSW) 2,694 10.8 -13.0°
Maximum altitude 19:01:40 27° 146° (SSE) 2,238 9.7 -14.0°
Enters shadow 19:07:26 15° 102° (ESE) 3,446 10.3 -15.1°
